Date,TemperatureHighF,TemperatureAvgF,TemperatureLowF,DewpointHighF,DewpointAvgF,DewpointLowF,HumidityHigh,HumidityAvg,HumidityLow,PressureMaxIn,PressureMinIn,WindSpeedMaxMPH,WindSpeedAvgMPH,GustSpeedMaxMPH,PrecipitationSumIn
2013-1-1,55.2,47.5,42.6,43.7,40.5,37.0,84,77,59,30.20,30.09,5,1,9,0.00
2013-1-2,51.3,49.8,46.9,42.6,40.7,38.3,80,71,64,30.29,30.09,7,3,11,0.02
2013-1-3,57.4,52.5,48.0,43.5,40.5,36.3,72,64,56,30.53,30.29,5,2,8,0.00
2013-1-4,52.9,49.4,44.1,40.8,38.3,35.6,78,66,60,30.50,30.29,8,4,10,0.00
2013-1-5,49.6,46.8,43.9,42.8,40.6,37.4,86,79,74,30.32,30.12,10,4,13,0.00
2013-1-6,57.7,51.5,46.0,45.9,42.8,37.4,91,74,55,30.23,30.12,5,1,8,0.00
2013-1-7,51.6,50.6,48.4,46.0,40.1,35.2,91,68,57,30.26,30.12,3,1,4,0.00
2013-1-8,53.1,49.6,46.6,45.0,41.8,34.9,79,75,55,30.29,30.23,4,1,7,0.00
2013-1-9,53.4,49.6,46.4,41.4,39.6,37.4,77,69,59,30.23,30.15,5,1,7,0.00
2013-1-10,49.5,47.9,46.6,44.4,43.2,38.5,89,84,69,30.15,29.85,7,1,12,0.11
2013-1-11,53.4,47.0,41.2,45.7,41.3,37.4,92,81,66,29.91,29.73,6,3,10,0.07
2013-1-12,53.4,46.0,40.1,43.2,39.5,35.2,93,78,63,30.09,29.88,5,2,10,0.00
2013-1-13,51.1,48.5,45.3,47.8,44.2,41.0,93,85,77,30.06,29.79,10,4,16,1.88
2013-1-14,50.5,48.2,45.3,47.5,43.6,37.6,94,84,74,29.94,29.73,7,2,13,0.26
2013-1-15,49.3,45.1,42.4,41.0,37.3,33.3,84,74,58,29.97,29.58,12,2,18,0.16
2013-1-16,44.6,40.1,36.1,40.6,35.4,32.0,91,84,72,29.61,29.47,10,3,22,1.18
2013-1-17,45.0,40.1,34.3,40.6,35.4,31.1,91,84,70,29.50,29.32,11,2,16,0.26
2013-1-18,41.2,36.6,33.8,34.3,31.0,28.6,96,81,67,29.67,29.38,11,5,18,0.05
2013-1-19,52.5,43.8,34.7,50.9,37.0,25.3,96,77,60,29.67,29.50,15,6,28,0.28
2013-1-20,55.6,53.3,49.5,52.9,49.7,44.1,96,88,76,29.58,29.50,14,7,26,1.03
2013-1-21,51.6,48.0,43.2,47.5,41.9,36.1,92,80,65,29.61,29.44,8,2,13,0.29
2013-1-22,48.0,45.7,41.9,43.9,38.1,32.4,89,75,62,29.82,29.55,7,2,16,0.08
2013-1-23,47.1,44.1,41.5,41.2,38.4,35.4,91,81,73,29.85,29.58,10,4,15,0.57
2013-1-24,48.7,43.6,38.5,42.6,38.4,35.1,88,82,72,29.58,29.41,7,2,15,0.09
2013-1-25,49.5,41.6,36.3,38.1,33.7,28.9,91,75,59,29.67,29.44,7,4,12,0.00
2013-1-26,46.6,39.0,34.5,32.7,29.5,27.3,80,69,56,29.88,29.61,6,2,11,0.00
2013-1-27,49.8,41.6,34.2,39.6,33.8,27.0,85,74,60,30.03,29.85,6,1,15,0.00
2013-1-28,46.6,44.3,40.3,42.1,39.7,28.2,89,84,61,30.03,29.82,10,5,19,0.52
2013-1-29,54.0,47.5,39.0,44.6,40.3,34.2,88,77,60,30.26,30.03,4,1,9,0.00
2013-1-30,56.8,51.8,44.1,48.6,44.1,38.7,92,76,60,30.26,30.17,4,2,8,0.00
2013-1-31,62.6,55.2,50.9,50.2,46.6,42.1,91,73,60,30.23,30.17,6,2,14,0.00
2013-2-1,59.7,54.1,46.9,49.1,46.8,41.5,87,77,64,30.20,29.76,8,2,15,0.00
2013-2-2,56.8,50.5,45.0,50.0,44.5,36.1,91,80,69,29.79,29.32,10,5,15,0.05
2013-2-3,48.2,43.1,38.7,38.8,35.3,27.0,85,74,62,29.97,29.38,9,3,16,0.22
2013-2-4,51.3,42.8,35.1,34.3,27.3,9.5,75,57,21,30.17,29.97,10,2,15,0.00
2013-2-5,49.6,48.4,43.5,46.9,43.8,28.9,91,84,59,30.15,29.82,9,4,17,0.00
2013-2-6,50.9,46.8,41.7,45.9,36.5,30.6,90,68,50,29.82,29.53,9,3,18,0.20
2013-2-7,46.9,41.4,38.1,38.8,35.0,30.4,89,78,61,29.58,29.47,7,2,11,0.43
2013-2-8,47.3,39.9,34.7,31.3,28.5,26.1,79,64,47,29.76,29.58,10,4,15,0.00
2013-2-9,43.9,36.7,32.2,30.0,24.4,19.8,83,62,42,29.88,29.73,8,3,14,0.00
2013-2-10,43.2,36.3,29.1,26.1,18.4,6.3,70,50,22,29.97,29.85,8,2,12,0.00
2013-2-11,48.6,42.6,36.7,45.3,34.1,17.6,94,74,44,29.97,29.53,15,8,30,2.04
2013-2-12,51.1,44.8,41.2,42.6,39.4,36.9,90,82,66,29.73,29.55,6,1,12,0.22
2013-2-13,49.6,43.3,37.0,37.4,33.6,30.4,84,69,56,29.85,29.70,5,2,8,0.00
2013-2-14,52.0,45.4,37.2,36.0,33.9,30.9,80,65,49,30.00,29.82,6,2,11,0.00
2013-2-15,52.7,45.8,39.4,38.5,34.9,31.1,79,66,53,30.03,29.94,4,1,6,0.00
2013-2-16,54.3,47.8,42.3,39.4,36.7,33.6,79,66,48,30.09,30.00,4,1,6,0.00
2013-2-17,51.3,44.7,40.1,40.1,36.6,34.0,83,74,60,30.09,29.97,6,2,10,0.39
2013-2-18,48.0,43.7,38.3,41.0,36.6,32.2,83,76,69,30.03,29.94,4,1,6,0.00
2013-2-19,51.4,44.4,35.8,36.3,31.8,27.3,78,62,41,30.03,29.94,5,1,8,0.00
2013-2-20,51.8,45.0,38.5,36.9,33.4,29.3,73,64,51,30.03,29.91,4,1,7,0.00
2013-2-21,54.7,48.5,40.8,41.4,37.1,33.1,84,66,47,29.94,29.70,4,1,8,0.02
2013-2-22,50.9,48.4,45.7,46.9,43.3,39.7,93,83,70,29.70,29.47,11,4,19,0.13
2013-2-23,51.1,47.4,43.9,49.6,43.0,32.7,96,85,61,29.67,29.44,20,7,31,2.38
2013-2-24,44.4,41.0,36.5,38.7,32.7,28.0,85,73,55,29.94,29.64,9,3,14,0.07
2013-2-25,39.7,37.6,35.1,35.4,33.3,30.0,93,85,69,30.06,29.91,8,2,12,1.18
2013-2-26,50.4,43.1,37.8,39.0,35.8,32.9,85,76,64,30.15,30.00,6,0,8,0.00
2013-2-27,52.5,46.1,38.3,35.4,32.3,29.3,77,59,45,30.23,30.12,7,2,11,0.00
2013-2-28,57.2,50.4,43.7,39.6,36.6,31.8,69,60,48,30.23,30.15,4,2,10,0.00
2013-3-1,54.9,51.6,44.6,38.8,36.1,33.4,71,56,48,30.15,29.88,4,1,5,0.00
2013-3-2,57.2,52.4,48.4,43.3,37.7,33.6,82,58,44,30.03,29.82,7,2,10,0.00
2013-3-3,59.2,50.7,44.6,46.2,42.9,39.7,87,76,56,30.09,30.00,3,1,5,0.00
2013-3-4,57.0,50.2,43.0,43.5,40.9,38.1,87,71,56,30.20,30.06,7,2,11,0.00
2013-3-5,56.7,53.3,45.1,39.2,33.8,18.9,76,49,24,30.20,29.94,8,3,15,0.00
2013-3-6,58.6,54.8,51.4,52.0,42.0,25.2,95,67,28,29.97,29.70,16,9,26,2.27
2013-3-7,57.9,54.5,52.7,53.8,51.5,49.1,96,90,82,29.85,29.73,7,2,13,0.14
2013-3-8,56.8,53.6,51.3,51.4,49.9,47.5,95,88,72,29.82,29.67,8,4,20,0.34
2013-3-9,61.9,56.2,51.3,52.3,49.0,44.2,98,79,56,29.85,29.70,10,3,24,0.05
2013-3-10,58.1,53.3,49.3,51.4,47.4,42.6,95,82,66,29.76,29.55,14,4,21,0.54
2013-3-11,55.8,51.7,45.0,49.8,47.0,41.5,97,85,68,29.67,29.58,14,4,15,0.22
2013-3-12,52.7,47.5,43.3,49.6,43.8,39.7,94,87,78,29.64,29.53,8,2,16,0.66
2013-3-13,50.9,46.7,42.8,46.2,42.5,39.6,91,86,76,29.58,29.29,6,2,9,0.45
2013-3-14,51.8,45.2,39.4,41.9,35.1,31.6,91,68,57,29.35,29.14,9,4,13,0.03
2013-3-15,49.1,42.0,36.7,36.5,30.1,25.0,83,64,40,29.88,29.32,7,2,11,0.00
2013-3-16,47.7,40.9,34.9,34.2,30.9,26.2,83,68,54,30.15,29.88,6,2,16,0.00
2013-3-17,48.6,46.5,40.8,42.1,36.5,30.4,81,68,61,30.12,29.76,18,8,28,0.13
2013-3-18,54.0,50.9,47.3,51.6,45.8,40.5,93,83,69,29.76,29.53,20,10,30,0.90
2013-3-19,56.1,51.0,47.1,45.0,41.5,37.2,83,70,61,29.85,29.70,7,3,13,0.00
2013-3-20,54.0,50.2,46.4,46.9,40.5,33.3,90,70,53,29.85,29.67,11,3,15,0.27
2013-3-21,56.7,49.9,42.8,47.3,38.5,34.0,92,67,44,30.00,29.67,12,4,60,0.00
2013-3-22,62.2,53.6,44.6,44.4,39.6,30.0,83,61,33,30.00,29.91,4,2,8,0.00
2013-3-23,60.1,54.5,46.6,48.6,43.6,33.6,85,67,48,29.97,29.82,6,2,12,0.00
2013-3-24,67.8,60.7,53.1,45.7,40.0,28.8,66,48,24,29.82,29.47,14,5,19,0.00
2013-3-25,57.4,49.8,43.2,51.8,45.6,38.3,93,86,64,29.58,29.35,10,2,17,1.24
2013-3-26,52.3,49.3,43.3,46.9,45.1,38.1,92,86,75,29.64,29.55,5,1,11,0.50
2013-3-27,58.6,53.1,47.3,48.7,45.7,40.3,91,77,56,29.85,29.61,7,2,14,0.00
2013-3-28,56.5,53.1,48.6,52.2,49.5,44.2,93,88,80,29.91,29.85,9,4,20,0.09
2013-3-29,60.4,57.5,52.7,53.8,50.3,46.6,92,77,70,29.91,29.79,6,3,13,0.00
2013-3-30,58.1,54.8,51.4,53.2,50.7,46.9,97,87,70,29.82,29.50,14,7,22,0.13
2013-3-31,55.9,51.1,48.4,50.7,47.2,43.3,96,87,77,29.73,29.50,10,4,17,1.14
2013-4-1,57.0,52.9,49.3,49.1,44.4,40.5,92,74,59,29.76,29.55,14,6,22,0.28
2013-4-2,54.1,51.4,48.2,52.7,49.3,45.3,98,93,87,29.61,29.47,12,3,24,1.27
2013-4-3,60.1,53.1,46.6,47.3,44.6,42.3,93,74,55,29.82,29.58,4,1,8,0.00
2013-4-4,61.9,57.3,47.7,47.5,41.3,35.1,84,56,37,29.82,29.55,14,5,24,0.00
2013-4-5,60.4,52.7,50.2,50.7,47.4,40.6,92,83,50,29.85,29.47,16,4,22,0.18
2013-4-6,64.0,57.4,50.2,52.3,48.4,44.4,87,73,58,29.85,29.76,7,2,13,0.00
2013-4-7,65.8,58.4,47.7,47.7,42.5,34.3,73,56,47,29.82,29.67,9,4,12,0.00
2013-4-8,61.2,53.8,43.9,44.6,40.4,33.6,79,62,41,29.91,29.79,6,2,12,0.00
2013-4-9,60.8,56.3,50.7,48.6,44.7,40.5,81,66,53,29.97,29.88,7,3,14,0.00
2013-4-10,62.1,57.4,52.5,51.4,48.9,40.1,84,74,55,30.06,29.94,8,4,15,0.00
2013-4-11,64.8,59.5,52.5,46.9,43.8,39.0,74,57,45,30.12,30.03,6,3,12,0.00
2013-4-12,64.0,58.5,54.1,52.3,50.1,45.0,80,74,64,30.09,29.97,7,4,14,0.00
2013-4-13,70.5,61.6,54.5,52.0,47.6,43.7,83,62,41,30.29,30.06,6,2,11,0.00
2013-4-14,71.6,62.5,54.5,55.0,46.3,41.2,69,56,45,30.38,30.26,5,2,9,0.00
2013-4-15,72.9,66.4,59.5,49.8,46.3,42.6,60,49,36,30.32,30.15,5,1,10,0.00
2013-4-16,73.8,66.7,59.4,54.0,48.1,41.7,65,52,34,30.23,30.15,4,1,11,0.00
2013-4-17,74.1,66.6,60.3,55.0,45.1,23.0,75,49,18,30.26,30.17,6,2,10,0.00
2013-4-18,75.7,68.8,60.3,50.4,45.9,33.3,61,45,22,30.23,30.09,4,1,8,0.00
2013-4-19,75.4,67.5,61.0,60.8,52.5,40.8,70,59,45,30.12,29.97,8,2,11,0.00
2013-4-20,60.8,56.5,51.3,54.9,47.8,43.9,91,73,56,30.09,30.00,4,1,8,0.00
2013-4-21,61.3,56.4,50.0,45.7,40.6,35.4,82,57,42,30.09,29.97,6,3,9,0.00
2013-4-22,53.4,50.4,47.8,46.4,43.0,39.9,84,76,62,30.06,29.91,8,3,15,0.39
2013-4-23,63.5,59.3,49.8,48.7,46.4,43.2,79,63,55,30.29,30.06,4,1,8,0.00
2013-4-24,75.4,69.4,62.2,51.4,48.3,44.1,56,47,39,30.35,30.29,4,2,10,0.00
2013-4-25,78.1,72.9,67.3,53.6,48.5,38.7,60,43,25,30.32,30.17,5,2,11,0.00
2013-4-26,69.3,64.3,60.4,55.0,49.9,43.7,76,60,42,30.17,30.00,12,4,19,0.05
2013-4-27,61.5,59.2,57.4,56.1,53.8,50.2,94,83,68,29.91,29.79,14,6,20,0.04
2013-4-28,76.8,71.7,57.7,55.9,51.6,44.4,91,50,37,30.03,29.88,9,3,13,0.00
2013-4-29,84.0,77.3,71.4,54.3,42.8,25.2,43,30,16,30.09,30.00,10,4,14,0.00
2013-4-30,84.2,76.6,70.2,56.3,45.9,25.2,47,35,16,30.12,30.03,9,3,13,0.00
2013-5-1,75.9,70.2,63.0,55.8,45.8,29.1,76,46,19,30.15,30.06,8,2,13,0.09
2013-5-2,75.7,66.1,60.6,61.0,55.1,50.2,83,69,47,30.12,29.97,9,2,13,0.16
2013-5-3,80.1,72.1,64.6,59.2,54.3,50.9,66,54,40,30.03,29.94,5,2,8,0.00
2013-5-4,80.8,73.0,64.4,61.5,56.3,48.6,68,56,45,30.06,29.97,4,1,6,0.00
2013-5-5,69.8,64.6,59.5,58.5,55.8,48.6,90,74,51,30.09,30.00,5,2,9,0.04
2013-5-6,66.6,59.8,57.4,60.8,56.5,54.1,93,89,77,30.03,29.91,9,2,14,1.47
2013-5-7,64.6,61.0,57.2,59.5,55.4,52.7,91,82,74,30.06,30.00,4,1,6,0.04
2013-5-8,72.3,64.9,57.0,57.6,53.3,49.3,84,67,54,30.03,29.94,4,1,7,0.00
2013-5-9,73.0,67.6,58.6,58.8,56.0,52.7,81,67,59,30.06,30.00,4,1,8,0.00
2013-5-10,69.3,65.2,61.9,59.5,57.1,53.4,84,76,61,30.03,29.97,7,2,12,0.00
2013-5-11,66.2,62.2,56.3,57.6,55.0,51.8,88,78,65,30.00,29.88,10,3,16,0.00
2013-5-12,69.1,62.3,55.2,56.1,53.7,51.3,89,74,59,29.97,29.88,6,2,11,0.00
2013-5-13,70.3,64.0,54.3,54.0,42.3,30.4,92,49,25,30.03,29.94,11,5,16,0.00
2013-5-14,73.0,66.8,59.4,52.7,46.8,31.1,72,50,24,30.06,29.94,8,2,13,0.00
2013-5-15,67.8,63.3,58.6,54.9,47.8,41.0,78,58,41,29.94,29.73,10,4,17,0.00
2013-5-16,71.8,65.4,59.2,56.7,55.0,51.8,87,70,54,29.76,29.58,16,5,24,0.70
2013-5-17,64.6,60.7,56.5,59.0,51.8,46.4,93,74,55,29.97,29.67,9,4,15,0.52
2013-5-18,77.0,71.7,61.7,54.9,50.0,45.7,65,47,37,30.03,29.88,8,3,16,0.00
2013-5-19,66.9,62.8,58.1,52.9,48.8,43.2,79,61,43,30.12,29.97,6,3,11,0.00
2013-5-20,67.5,62.7,57.6,51.3,45.7,35.4,79,55,31,30.17,30.12,4,2,8,0.00
2013-5-21,66.9,61.2,55.8,53.8,48.9,42.1,88,65,50,30.15,29.88,9,2,9,0.14
2013-5-22,75.2,63.6,57.7,59.2,54.4,50.5,93,73,49,29.88,29.44,6,2,11,0.83
2013-5-23,62.1,57.7,55.0,57.9,54.7,51.6,99,90,74,29.76,29.50,9,2,12,0.48
2013-5-24,61.5,57.1,51.3,54.9,46.9,42.1,93,69,59,29.94,29.73,9,5,18,0.00
2013-5-25,59.7,54.0,50.5,47.1,43.5,40.3,76,68,50,29.94,29.85,10,4,18,0.00
2013-5-26,63.3,57.0,50.9,48.7,45.4,42.4,85,66,53,30.06,29.88,7,3,12,0.02
2013-5-27,67.3,60.8,52.7,50.9,47.5,34.5,84,63,34,30.09,29.94,8,3,15,0.00
2013-5-28,72.3,65.8,55.0,51.6,47.5,40.5,79,53,36,29.97,29.73,5,1,9,0.00
2013-5-29,63.9,60.1,55.0,55.6,49.2,43.0,87,68,51,29.82,29.76,8,3,13,0.00
2013-5-30,59.5,54.5,50.9,50.9,47.5,45.0,89,78,60,29.82,29.76,10,4,16,0.27
2013-5-31,60.8,57.5,53.1,53.1,49.9,46.2,91,77,61,29.82,29.76,9,5,20,0.07
2013-6-1,63.9,57.9,54.0,53.8,51.3,48.2,91,79,66,29.88,29.76,6,2,14,0.72
2013-6-2,70.7,63.3,55.0,59.0,55.0,51.4,89,75,57,30.03,29.85,7,2,12,0.00
2013-6-3,69.8,62.9,57.2,57.9,53.7,49.8,87,72,64,30.03,29.94,6,1,10,0.00
2013-6-4,70.5,64.0,59.4,60.4,56.1,49.8,92,76,57,30.06,29.97,7,2,18,0.13
2013-6-5,73.0,67.1,59.7,60.6,57.1,52.5,92,71,55,30.12,30.03,6,1,11,0.02
2013-6-6,75.9,70.4,60.3,61.3,57.7,52.3,83,65,57,30.12,30.06,5,1,13,0.00
2013-6-7,79.3,73.3,65.3,59.5,54.5,52.0,69,52,41,30.09,30.03,7,2,10,0.00
2013-6-8,79.9,72.5,65.7,61.2,56.5,49.3,67,57,50,30.09,30.00,6,1,9,0.00
2013-6-9,74.1,69.7,63.3,63.1,53.8,43.3,73,58,41,30.03,29.91,8,3,13,0.00
2013-6-10,71.6,67.2,61.0,57.4,54.4,52.2,78,64,55,29.97,29.91,6,2,12,0.00
2013-6-11,75.0,68.5,60.4,57.9,55.7,53.1,82,64,53,30.03,29.94,6,3,12,0.00
2013-6-12,83.5,76.3,64.4,58.6,51.4,44.2,75,43,28,30.09,30.00,8,3,16,0.00
2013-6-13,85.6,79.1,69.1,52.9,46.9,40.3,47,33,21,30.09,30.03,6,2,9,0.00
2013-6-14,84.6,77.9,70.3,58.3,54.0,46.9,53,44,36,30.12,30.03,5,2,9,0.00
2013-6-15,83.8,77.2,69.6,63.5,59.0,51.4,62,54,48,30.15,30.09,5,2,11,0.00
2013-6-16,86.0,78.2,68.4,64.0,59.2,54.7,66,53,42,30.15,30.09,4,1,7,0.00
2013-6-17,90.7,83.1,72.5,67.5,62.1,54.3,59,50,40,30.12,30.06,4,1,7,0.00
2013-6-18,90.0,84.0,76.1,68.7,63.5,58.5,60,51,36,30.09,30.06,7,2,16,0.00
2013-6-19,93.6,84.9,73.8,66.4,60.6,55.2,62,45,30,30.12,30.06,4,1,9,0.00
2013-6-20,91.0,83.9,76.1,63.7,58.5,51.3,62,43,27,30.12,30.06,6,2,12,0.00
2013-6-21,85.6,80.1,71.8,64.6,61.2,54.7,75,54,36,30.12,30.06,7,2,13,0.00
2013-6-22,82.4,75.4,68.4,62.8,59.0,54.0,79,58,43,30.12,30.06,4,1,6,0.00
2013-6-23,83.1,74.4,66.4,64.9,61.5,57.0,84,66,47,30.12,30.00,6,2,12,0.00
2013-6-24,71.6,67.8,63.5,62.2,57.7,53.8,87,71,57,30.03,29.94,9,4,15,0.00
2013-6-25,79.7,70.5,58.8,57.6,52.6,42.3,87,56,27,30.09,29.97,8,3,11,0.00
2013-6-26,75.6,68.3,60.6,60.1,54.6,47.1,75,62,37,30.12,30.06,12,3,16,0.04
2013-6-27,77.4,71.0,58.3,58.1,53.7,51.3,82,56,42,30.15,30.06,5,2,10,0.00
2013-6-28,75.2,69.0,61.9,60.6,55.8,50.5,83,64,49,30.12,30.00,7,3,17,0.07
2013-6-29,75.6,70.6,63.7,55.6,49.8,45.7,74,49,36,30.09,30.00,8,5,13,0.00
2013-6-30,80.1,72.0,63.5,53.6,48.5,39.7,56,44,24,30.15,30.06,5,2,11,0.00
2013-7-1,81.0,75.3,65.7,57.9,52.2,46.9,57,45,34,30.17,30.12,6,2,8,0.00
2013-7-2,85.3,77.5,68.5,58.1,53.8,44.4,59,45,31,30.15,30.09,4,1,9,0.00
2013-7-3,82.9,76.8,68.4,59.4,52.4,44.2,71,45,27,30.12,30.03,4,2,8,0.00
2013-7-4,81.9,72.5,64.6,63.5,59.4,53.2,87,65,42,30.12,30.00,4,2,10,0.45
2013-7-5,88.3,80.8,66.7,64.6,58.0,51.8,83,47,31,30.15,30.09,5,2,9,0.00
2013-7-6,89.4,81.0,73.8,61.9,55.8,44.6,61,44,22,30.17,30.09,8,3,12,0.00
2013-7-7,87.4,76.3,69.8,64.0,60.7,57.4,78,60,37,30.17,30.09,9,2,12,0.05
2013-7-8,88.7,76.3,68.2,64.6,61.2,57.4,82,62,39,30.17,30.06,9,2,12,1.53
2013-7-9,84.9,76.0,66.7,65.7,61.9,58.5,80,63,42,30.09,29.97,4,1,8,0.00
2013-7-10,85.1,76.9,68.5,67.6,63.9,58.3,84,65,44,30.00,29.88,6,2,13,0.00
2013-7-11,84.6,76.8,70.3,70.3,64.3,57.2,80,66,51,29.97,29.88,8,2,13,0.00
2013-7-12,86.5,79.4,70.9,67.1,62.7,58.3,77,58,42,30.06,29.94,5,2,9,0.00
2013-7-13,85.8,80.5,71.8,67.3,63.5,59.0,75,57,48,30.06,30.00,6,2,8,0.00
2013-7-14,86.4,80.3,71.2,68.5,64.0,60.1,75,58,43,30.03,29.97,6,2,10,0.00
2013-7-15,84.6,77.9,71.1,69.4,64.4,58.6,75,64,46,30.06,30.00,5,1,15,0.16
2013-7-16,87.6,82.1,72.5,63.9,60.4,56.5,64,49,36,30.12,30.03,6,2,10,0.00
2013-7-17,89.2,81.4,74.7,68.9,64.4,55.6,73,57,42,30.09,30.03,6,2,12,0.00
2013-7-18,84.6,79.5,73.0,69.4,66.8,60.6,88,66,56,30.09,30.03,10,2,19,0.00
2013-7-19,82.9,75.2,70.7,69.4,64.4,60.8,88,70,53,30.09,30.00,6,2,8,0.00
2013-7-20,87.1,79.7,70.3,65.3,63.1,59.5,78,58,41,30.03,29.94,5,1,9,0.00
2013-7-21,87.4,76.0,68.5,68.9,63.4,57.6,85,66,45,30.03,29.97,7,2,15,0.59
2013-7-22,83.1,77.0,69.3,66.9,63.3,56.8,80,63,51,30.00,29.94,4,1,6,0.00
2013-7-23,91.2,83.4,72.5,66.7,59.6,38.1,80,48,16,30.00,29.91,4,2,8,0.00
2013-7-24,91.4,83.2,75.0,67.3,62.9,54.9,76,52,31,30.06,29.97,6,2,11,0.00
2013-7-25,88.9,82.5,75.0,70.0,67.2,58.1,79,61,48,30.06,30.00,5,2,10,0.00
2013-7-26,91.4,84.9,77.5,71.6,65.9,58.1,69,54,43,30.06,29.97,5,1,8,0.00
2013-7-27,95.5,88.0,77.9,69.3,63.7,47.8,62,45,30,30.00,29.94,6,2,9,0.00
2013-7-28,94.5,86.0,76.1,66.2,61.5,52.9,56,44,34,30.09,29.97,6,2,9,0.00
2013-7-29,91.4,85.8,76.6,72.3,62.1,53.2,85,47,31,30.09,30.00,8,3,14,0.00
2013-7-30,89.2,82.5,75.2,71.1,59.4,45.0,84,49,22,30.03,29.94,8,3,16,0.00
2013-7-31,90.7,83.3,75.9,64.2,60.0,48.7,64,47,25,30.00,29.91,6,2,9,0.00
2013-8-1,93.7,83.7,75.0,63.3,57.4,49.1,63,43,25,30.03,29.94,5,2,8,0.00
2013-8-2,91.2,83.7,74.1,67.6,62.1,57.4,69,49,36,30.06,30.00,5,2,8,0.00
2013-8-3,94.6,87.2,78.3,66.9,61.3,55.9,53,43,30,30.09,30.03,4,2,8,0.00
2013-8-4,97.9,89.8,82.2,66.0,57.0,45.9,50,35,18,30.09,30.03,6,2,11,0.00
2013-8-5,100.8,90.4,80.2,58.1,47.0,32.9,40,24,10,30.06,29.97,4,1,7,0.00
2013-8-6,96.8,90.1,80.6,69.8,60.5,31.3,56,38,15,30.03,29.94,5,1,10,0.00
2013-8-7,98.2,90.9,81.3,66.2,48.4,18.3,41,25,7,30.00,29.94,4,1,8,0.00
2013-8-8,98.2,90.9,82.2,62.4,45.7,31.1,41,23,10,30.00,29.94,4,1,9,0.00
2013-8-9,85.1,77.2,72.7,65.5,61.4,45.0,72,59,27,29.97,29.85,8,2,12,0.00
2013-8-10,88.7,81.6,70.7,64.0,61.2,57.4,67,51,36,29.94,29.82,7,2,9,0.00
2013-8-11,89.8,82.9,74.8,63.5,61.0,57.4,58,48,37,29.97,29.91,6,1,11,0.00
2013-8-12,89.1,83.1,75.7,67.3,59.6,52.0,59,46,30,30.03,29.94,5,2,10,0.00
2013-8-13,89.2,82.1,75.6,65.1,61.8,54.0,68,52,34,30.00,29.94,6,2,8,0.00
2013-8-14,87.8,83.2,74.5,65.1,61.9,55.2,73,50,39,30.00,29.91,6,2,8,0.00
2013-8-15,90.1,83.3,73.6,66.6,62.0,56.5,79,49,41,30.06,29.97,4,2,14,0.00
2013-8-16,87.6,82.9,76.1,70.2,64.3,55.6,61,54,43,30.06,29.97,5,1,8,0.00
2013-8-17,90.7,83.1,75.0,61.3,58.9,54.5,59,45,31,30.06,29.97,6,2,11,0.00
2013-8-18,89.4,80.7,72.5,66.6,59.5,52.2,80,50,31,30.09,30.00,4,1,9,0.00
2013-8-19,91.4,80.5,71.6,68.9,64.5,56.5,89,61,31,30.06,29.97,5,1,10,0.00
2013-8-20,81.3,72.9,67.3,68.7,63.0,58.1,89,72,53,30.00,29.91,8,2,15,0.04
2013-8-21,86.2,78.7,68.2,61.5,59.4,57.2,75,53,40,30.00,29.94,7,2,8,0.00
2013-8-22,87.3,80.1,74.5,65.8,62.1,54.7,69,55,46,30.00,29.94,5,1,8,0.00
2013-8-23,87.8,81.2,72.9,61.7,58.6,53.1,62,47,39,30.03,29.94,7,2,12,0.00
2013-8-24,84.7,77.0,72.0,69.4,65.3,55.8,87,69,49,30.03,29.88,5,2,10,0.00
2013-8-25,80.1,72.9,65.7,68.9,66.8,62.4,93,82,64,29.94,29.79,11,4,20,1.02
2013-8-26,79.3,75.1,69.8,67.8,65.8,61.7,84,73,65,29.91,29.85,10,3,16,0.00
2013-8-27,77.0,71.5,67.5,68.2,65.0,62.6,92,81,67,29.88,29.82,13,1,14,0.39
2013-8-28,77.7,72.4,68.4,67.5,63.8,60.6,90,75,63,30.00,29.85,3,1,8,0.64
2013-8-29,81.0,75.7,68.4,64.9,62.3,59.2,84,65,50,30.09,29.97,4,2,9,0.00
2013-8-30,81.3,75.0,69.1,64.6,62.5,61.0,84,66,54,30.09,29.97,4,1,6,0.00
2013-8-31,82.0,76.0,69.3,65.1,63.8,62.4,83,67,54,30.06,29.97,5,2,11,0.00
2013-9-1,81.7,75.7,68.9,62.6,59.7,56.1,80,59,43,30.09,30.00,5,2,12,0.00
2013-9-2,85.3,77.2,67.1,63.1,58.1,47.7,74,54,28,30.15,30.06,4,1,8,0.00
2013-9-3,86.0,78.4,71.1,65.3,63.2,56.5,77,61,41,30.20,30.15,4,1,8,0.00
2013-9-4,88.3,80.3,72.0,61.0,56.9,51.6,68,46,31,30.20,30.09,4,2,9,0.00
2013-9-5,87.3,79.1,72.0,65.3,58.2,50.4,72,50,31,30.15,29.97,9,2,14,0.00
2013-9-6,86.4,79.1,72.0,66.6,62.0,58.8,71,57,40,30.00,29.88,6,2,9,0.00
2013-9-7,86.7,78.9,71.6,65.7,63.3,60.8,80,60,43,30.12,29.97,6,1,11,0.00
2013-9-8,85.6,77.6,71.8,69.1,65.9,60.6,91,69,46,30.17,30.09,5,2,8,0.00
2013-9-9,78.8,72.7,68.5,71.8,66.4,57.9,94,82,64,30.15,30.06,7,3,14,0.11
2013-9-10,72.7,68.7,65.8,63.5,62.0,59.5,92,80,64,30.09,29.97,7,2,12,0.02
2013-9-11,73.9,68.9,65.3,65.3,62.6,57.7,93,81,64,30.03,29.94,7,2,12,0.13
2013-9-12,71.4,67.7,62.8,58.1,55.1,54.0,74,65,56,30.00,29.91,8,3,16,0.00
2013-9-13,77.2,70.3,62.4,57.7,55.2,49.6,76,60,40,30.12,29.97,5,2,9,0.00
2013-9-14,77.0,70.3,63.5,58.8,54.8,51.3,80,59,43,30.12,30.03,5,1,9,0.00
2013-9-15,72.3,67.5,62.6,64.4,60.9,54.3,94,80,61,30.09,29.82,9,3,18,0.90
2013-9-16,73.2,65.5,43.9,63.9,58.9,34.7,96,80,61,29.85,29.73,6,2,13,0.00
2013-9-17,71.6,67.3,61.9,60.8,56.1,50.2,84,68,47,29.73,29.64,8,3,12,0.00
2013-9-18,73.2,67.1,60.1,59.4,56.9,54.1,84,71,55,29.79,29.73,7,3,19,0.00
2013-9-19,75.4,68.9,63.3,62.6,59.4,52.3,84,72,62,29.85,29.73,8,4,13,0.00
2013-9-20,81.1,72.5,63.1,62.4,59.0,54.5,82,64,45,30.03,29.82,5,1,8,0.00
2013-9-21,81.1,73.9,65.5,61.5,58.6,55.8,81,60,43,30.12,30.03,4,2,10,0.00
2013-9-22,78.3,71.4,63.1,58.3,53.6,46.8,76,55,33,30.20,30.09,6,2,12,0.00
2013-9-23,74.8,68.0,62.2,57.7,55.6,51.8,80,65,51,30.15,30.06,4,1,7,0.00
2013-9-24,79.2,70.5,62.2,60.3,57.9,54.0,83,66,43,30.09,30.03,4,1,8,0.00
2013-9-25,75.4,66.4,60.3,62.2,57.9,51.6,89,75,56,30.06,29.97,7,1,10,0.00
2013-9-26,80.2,72.8,63.0,62.8,60.6,56.7,87,67,50,30.06,29.97,3,1,6,0.00
2013-9-27,79.9,72.2,64.8,65.8,60.7,57.9,91,69,52,30.03,29.94,4,1,7,0.00
2013-9-28,79.2,72.5,64.9,64.8,61.5,57.4,81,69,52,30.00,29.88,7,2,9,0.00
2013-9-29,74.3,70.3,65.3,67.6,64.8,56.1,92,83,67,29.91,29.70,11,4,17,0.81
2013-9-30,74.1,67.3,61.9,66.7,61.8,55.9,98,83,62,29.70,29.58,7,1,14,2.65
2013-10-1,73.8,68.2,62.1,61.2,59.1,56.1,87,74,58,29.82,29.67,7,2,10,0.00
2013-10-2,76.8,70.5,65.1,62.1,59.6,55.9,88,70,52,30.06,29.85,4,2,8,0.00
2013-10-3,74.3,67.1,61.7,60.3,55.3,52.0,84,67,52,30.23,30.03,5,2,7,0.00
2013-10-4,71.6,67.3,62.1,57.4,55.8,53.2,82,67,57,30.26,30.17,4,1,5,0.00
2013-10-5,70.5,66.1,59.9,62.6,58.0,48.6,88,76,51,30.20,30.03,12,3,17,1.00
2013-10-6,73.9,69.2,63.7,65.1,62.6,60.1,89,80,70,30.06,29.97,8,1,12,0.16
2013-10-7,72.7,67.0,62.4,63.7,60.1,55.4,90,79,67,30.09,30.03,5,1,11,0.00
2013-10-8,70.7,64.5,60.6,60.1,57.8,55.8,90,80,63,30.12,30.06,4,1,11,0.28
2013-10-9,67.6,62.9,59.4,61.7,57.9,56.1,93,84,73,30.09,30.00,5,1,9,0.07
2013-10-10,65.7,63.0,59.5,62.4,59.4,56.5,94,88,77,30.03,29.82,8,2,14,0.59
2013-10-11,69.1,63.1,59.5,61.3,58.3,53.2,94,85,72,30.03,29.82,4,1,8,0.07
2013-10-12,69.4,66.2,59.0,64.9,62.2,50.4,93,87,73,30.15,29.97,9,2,15,0.00
2013-10-13,73.9,69.0,61.7,61.3,57.4,54.3,90,67,56,30.15,30.09,3,1,6,0.00
2013-10-14,77.7,70.9,64.0,61.0,55.5,48.2,73,59,46,30.15,30.09,4,1,10,0.00
2013-10-15,70.0,66.4,64.0,62.2,57.0,50.7,92,73,56,30.09,29.94,5,2,11,0.00
2013-10-16,72.3,67.1,61.7,66.2,58.7,53.8,98,76,59,29.94,29.73,8,3,13,0.15
2013-10-17,75.6,68.0,59.7,54.9,47.5,34.9,78,52,25,30.03,29.85,3,1,5,0.00
2013-10-18,73.6,67.2,59.7,60.3,57.5,51.1,89,72,54,30.09,30.00,3,1,6,0.00
2013-10-19,72.1,66.7,61.5,59.4,55.8,52.0,90,69,51,30.23,30.09,5,2,9,0.00
2013-10-20,74.7,69.7,62.8,61.2,58.4,52.0,77,68,59,30.26,30.20,5,2,10,0.00
2013-10-21,74.1,68.8,65.1,62.6,59.3,57.0,85,72,64,30.23,30.20,5,1,11,0.00
2013-10-22,75.9,70.3,64.4,62.8,60.2,52.9,87,72,54,30.20,30.12,5,2,10,0.00
2013-10-23,74.5,69.0,65.1,63.0,60.3,56.7,86,74,65,30.17,30.09,4,2,10,0.00
2013-10-24,69.8,66.9,64.0,61.7,59.9,57.6,86,79,67,30.17,30.09,8,2,10,0.02
2013-10-25,76.1,70.2,64.2,66.7,63.7,59.5,88,80,70,30.20,30.12,4,1,6,0.00
2013-10-26,75.4,69.3,64.0,66.2,63.2,60.1,92,81,69,30.23,30.17,3,1,7,0.00
2013-10-27,72.7,66.3,62.4,63.9,61.4,58.6,96,85,69,30.26,30.17,3,1,6,0.00
2013-10-28,74.1,68.2,62.2,64.4,62.5,59.7,93,83,70,30.17,30.09,4,2,9,0.00
2013-10-29,73.8,67.8,62.1,64.8,61.7,57.4,93,81,71,30.09,29.94,4,1,8,0.00
2013-10-30,71.1,65.9,60.8,61.5,59.7,57.4,93,81,66,30.06,29.94,3,1,10,0.00
2013-10-31,72.9,67.1,61.2,60.6,56.6,54.5,90,70,56,30.15,30.03,5,1,8,0.00
2013-11-1,71.4,65.6,60.8,58.1,56.0,53.8,85,72,59,30.15,30.06,4,2,9,0.00
2013-11-2,68.5,65.3,60.6,62.2,60.0,54.0,94,84,71,30.12,30.00,8,2,14,0.03
2013-11-3,67.5,64.9,61.7,62.4,60.2,58.5,94,85,76,30.06,29.94,9,4,15,0.17
2013-11-4,66.4,63.8,61.3,62.6,57.6,53.6,96,81,67,29.94,29.47,12,4,17,0.15
2013-11-5,63.9,58.7,55.4,61.7,54.8,52.0,97,87,68,29.55,29.38,8,2,16,2.45
2013-11-6,65.8,62.0,54.9,57.0,52.6,46.9,92,72,59,29.91,29.53,7,4,12,0.00
2013-11-7,67.6,64.3,59.4,61.3,58.8,48.6,91,83,66,30.12,29.88,8,3,16,0.00
2013-11-8,69.6,65.1,62.2,62.2,58.8,55.0,91,81,71,30.09,30.03,12,4,18,0.00
2013-11-9,68.4,63.4,59.9,62.6,58.9,55.6,89,86,78,30.06,29.94,9,3,13,0.00
2013-11-10,61.3,57.5,49.3,56.3,53.4,44.1,94,87,74,30.00,29.50,11,5,17,0.28
2013-11-11,53.2,49.2,45.3,50.7,45.6,43.0,99,88,75,29.70,29.38,12,5,16,0.37
2013-11-12,58.5,54.6,50.0,53.4,51.5,47.7,97,90,69,29.94,29.67,5,2,9,0.18
2013-11-13,63.5,60.4,53.1,54.9,52.2,49.3,88,75,69,29.97,29.88,5,2,10,0.00
2013-11-14,69.4,61.8,58.3,55.0,53.2,48.7,84,74,55,29.97,29.85,5,1,9,0.00
2013-11-15,59.9,55.6,52.9,55.6,52.0,48.0,96,88,76,30.00,29.79,6,1,9,0.72
2013-11-16,62.8,59.3,55.8,51.8,48.4,45.5,85,68,57,30.09,29.97,5,1,8,0.00
2013-11-17,66.0,60.4,55.8,54.5,51.4,45.7,83,73,62,30.15,30.03,6,2,11,0.00
2013-11-18,63.1,61.1,56.7,52.0,49.9,47.3,83,67,61,30.09,29.67,14,6,25,0.02
2013-11-19,60.1,55.4,50.7,53.8,49.3,45.9,93,80,69,29.76,29.38,12,5,20,2.34
2013-11-20,57.4,51.3,48.7,56.1,48.0,44.2,97,89,74,29.73,29.29,16,2,25,0.84
2013-11-21,52.3,49.1,47.3,47.1,42.8,40.3,94,80,68,29.73,29.50,9,3,19,0.90
2013-11-22,51.6,47.4,45.3,46.8,42.2,38.8,92,82,72,29.53,29.38,9,2,15,0.41
2013-11-23,47.8,44.7,43.2,44.4,41.2,38.5,93,88,80,29.58,29.38,9,2,14,1.60
2013-11-24,52.0,47.8,44.6,44.4,41.2,38.7,85,79,64,29.70,29.53,5,1,9,0.00
2013-11-25,54.0,44.7,34.5,45.3,34.6,22.8,80,68,56,29.82,29.67,13,5,20,0.00
2013-11-26,41.4,31.9,31.5,30.0,14.7,-99.9,84,65,62,29.94,29.82,17,7,22,0.00
2013-11-27,40.3,36.1,32.2,32.4,29.0,25.9,82,76,64,30.20,29.91,10,3,14,0.00
2013-11-28,45.5,43.2,37.6,39.0,34.2,27.9,83,71,61,30.23,30.15,7,2,10,0.02
2013-11-29,55.4,48.9,43.2,43.7,38.9,34.5,79,69,60,30.20,30.03,4,1,7,0.02
2013-11-30,53.2,49.5,44.8,39.7,36.7,33.8,69,61,55,30.06,29.79,5,2,8,0.00
2013-12-1,53.1,51.0,45.3,41.2,38.8,34.3,70,63,58,29.82,29.61,11,4,17,0.00
2013-12-2,64.4,55.3,50.4,51.1,46.7,40.5,85,74,59,30.12,29.70,8,3,13,0.00
2013-12-3,60.8,53.9,46.9,45.5,40.8,37.2,78,62,46,30.20,30.09,4,1,7,0.00
2013-12-4,56.7,52.1,47.1,47.3,44.5,40.1,87,76,67,30.23,30.12,4,1,8,0.00
2013-12-5,54.0,49.3,44.8,43.5,38.7,35.1,87,68,57,30.17,30.09,3,1,5,0.00
2013-12-6,52.3,49.7,44.6,41.5,39.8,39.0,87,69,63,30.09,29.91,4,1,6,0.00
2013-12-7,57.0,51.5,46.4,45.0,40.4,36.9,82,66,53,30.26,29.97,4,2,8,0.00
2013-12-8,61.0,53.5,50.0,46.2,43.9,41.5,79,71,53,30.35,30.23,4,1,10,0.00
2013-12-9,58.6,53.3,49.8,49.5,45.4,41.4,80,75,67,30.38,30.32,3,1,5,0.00
2013-12-10,56.1,52.6,47.1,45.0,42.1,37.0,76,68,57,30.47,30.35,3,1,5,0.00
2013-12-11,57.2,53.1,48.7,49.6,46.7,37.2,87,80,61,30.50,30.44,5,1,8,0.00
2013-12-12,55.2,49.5,46.9,46.4,43.2,38.8,86,79,71,30.44,30.29,4,2,6,0.00
2013-12-13,53.4,49.3,46.6,44.6,41.6,38.7,84,75,66,30.32,30.20,4,2,6,0.00
2013-12-14,54.5,50.7,46.2,44.4,42.7,39.2,80,74,63,30.35,30.23,4,1,6,0.00
2013-12-15,53.2,48.3,44.8,45.7,41.9,39.0,85,79,69,30.44,30.32,6,1,8,0.05
2013-12-16,57.6,51.3,45.1,49.3,40.3,28.2,89,67,42,30.47,30.41,4,1,6,0.00
2013-12-17,58.1,51.3,46.0,43.5,37.6,30.7,72,60,51,30.44,30.32,2,1,4,0.00
2013-12-18,56.1,49.2,44.4,45.7,39.5,30.9,80,70,57,30.35,30.20,4,1,6,0.00
2013-12-19,54.1,51.2,44.1,45.9,42.5,33.3,87,73,64,30.23,30.09,7,3,12,0.00
2013-12-20,53.8,52.7,51.3,50.4,49.0,42.6,92,88,72,30.44,30.12,8,2,15,0.36
2013-12-21,60.4,55.0,50.2,52.2,49.9,46.8,90,83,74,30.53,30.41,1,0,4,0.03
2013-12-22,55.8,51.4,49.3,51.6,47.0,45.3,91,85,77,30.50,30.35,3,0,4,0.00
2013-12-23,55.4,50.4,45.3,46.8,43.1,40.1,93,77,64,30.35,30.20,4,1,5,0.00
2013-12-24,55.8,50.8,45.0,46.8,44.3,37.2,88,79,69,30.20,30.06,8,2,17,0.00
2013-12-25,53.4,52.6,49.6,50.5,47.7,43.9,92,84,79,30.06,29.58,15,10,28,0.06
2013-12-26,55.0,52.2,47.3,53.4,49.2,42.3,96,90,83,29.58,29.35,16,8,26,1.81
2013-12-27,51.6,47.2,44.4,44.6,42.5,40.8,91,84,73,29.88,29.47,5,1,10,0.00
2013-12-28,57.4,52.2,44.2,47.7,45.2,39.9,88,78,64,30.03,29.85,6,2,12,0.00
2013-12-29,56.5,53.3,50.9,51.4,49.2,45.9,93,86,75,30.12,30.00,8,2,16,0.00
2013-12-30,51.3,46.9,45.1,48.6,45.5,43.7,98,95,87,30.15,30.03,6,2,9,0.68
2013-12-31,53.2,49.4,45.1,50.5,44.5,39.7,98,84,69,30.09,30.00,4,1,6,0.02
2014-1-1,53.6,47.9,44.2,44.8,40.9,37.4,84,77,69,30.12,30.00,1,0,3,0.00
2014-1-2,52.9,51.9,44.2,49.5,46.1,37.8,89,81,68,30.09,30.00,8,2,17,0.00